Flag for U.S.A. Weather past 2 weeks in Lafayette, Indiana, U.S.A.

Now
50 °F

Sunny.


Feels Like: 45 °F
Forecast: 35 / 55 °F
Wind: 13 mph from North

Location: Purdue University Airport

Current Time: Apr 27, 2015 at 11:48:40 AM

Latest Report: Apr 27, 2015 at 10:54 AM


Visibility: 10 mi

Pressure: 30.07 "Hg

Humidity: 59%

Dew point: 36 °F

Location of LafayetteLocation

Historic Weather in Lafayette — Graph

°F

Lafayette temperature yesterday

Maximum temperature yesterday: 56 °F (at 4:54 PM)
Minimum temperature yesterday: 37 °F (at 6:54 AM)
Average temperature yesterday: 47 °F

Past Weeks' High & Low Weather Summary

 TemperatureHumidityPressure
High76 °F (Apr 18, 2:54 PM)100% (Apr 16, 9:54 PM)30.26 "Hg (Apr 16, 9:54 PM)
Low28 °F (Apr 24, 6:54 AM)22% (Apr 24, 3:54 PM)29.30 "Hg (Apr 19, 11:54 PM)
Average52 °F63%29.93 "Hg
* Reported Apr 12 9:54 AM — Apr 27 9:54 AM, Lafayette, Weather by CustomWeather, © 2015

Note: Actual official high and low records may vary slightly from our data, if they occured in-between our weather recording intervals... More about our weather records

Advertising

Lafayette weather history for previous 24 hours

 ConditionsComfort  
Time TempWeatherWind HumidityBarometerVisibility
9:54 AM
Mon, Apr 27
46 °FSunny.12 mph66%30.07 "Hg10 mi
8:54 AM41 °FSunny.12 mph80%30.07 "Hg10 mi
7:54 AM36 °FSunny.7 mph89%30.05 "Hg10 mi
6:54 AM33 °FClear.3 mph96%30.03 "Hg10 mi
5:54 AM36 °FClear.5 mph85%29.98 "Hg10 mi
4:54 AM35 °FClear.7 mph85%29.99 "Hg10 mi
3:54 AM34 °FClear.No wind85%29.99 "Hg10 mi
2:54 AM36 °FClear.5 mph79%30.00 "Hg10 mi
1:54 AM36 °FClear.8 mph75%30.01 "Hg10 mi
12:54 AM39 °FClear.5 mph65%30.00 "Hg10 mi
11:54 PM
Sun, Apr 26
40 °FClear.6 mph60%29.99 "Hg10 mi
10:54 PM42 °FClear.7 mph60%30.00 "Hg10 mi
9:54 PM45 °FClear.12 mph53%29.98 "Hg10 mi
8:54 PM48 °FSunny.14 mph50%29.97 "Hg10 mi
7:54 PM51 °FSunny.14 mph46%29.95 "Hg10 mi
6:54 PM53 °FSunny.14 mph41%29.94 "Hg10 mi
5:54 PM55 °FSunny.16 mph42%29.93 "Hg10 mi
4:54 PM56 °FScattered clouds.16 mph44%29.93 "Hg10 mi
3:54 PM55 °FPartly sunny.12 mph45%29.93 "Hg10 mi
2:54 PM55 °FPassing clouds.14 mph45%29.95 "Hg10 mi
1:54 PM53 °FScattered clouds.16 mph48%29.96 "Hg10 mi
12:54 PM52 °FPassing clouds.14 mph50%29.96 "Hg10 mi
11:54 AM50 °FSunny.14 mph57%29.96 "Hg10 mi
Weather by CustomWeather, © 2015

See weather overviewHow to use our weather pages